Regional Weather Roundup
Issued by NWS

Home | Current Version | Previous Version | Graphics & Text | Print | Product List | Glossary Off
Versions: 1 2 3 4 5 6 7 8 9 10 11 12 13 14 15 16 17 18 19 20 21 22 23 24 25 26 27 28 29 30 31 32 33 34 35 36 37 38 39 40 41 42 43 44 45 46 47 48 49 50

000
ASUS43 KDMX 290807
RWRIA

WEATHER ROUNDUP FOR IOWA
NATIONAL WEATHER SERVICE DES MOINES IA
300 AM CDT FRI AUG 29 2014

NOTE: "FAIR" INDICATES FEW OR NO CLOUDS BELOW 12,000 FEET WITH NO
SIGNIFICANT WEATHER AND/OR OBSTRUCTIONS TO VISIBILITY.

* - THESE STATIONS ARE NOT NWS STATIONS...THUS NOT UNDER NWS
QUALITY CONTROL.  THEY ALSO DO NOT REPORT WEATHER SUCH
AS PRECIPITATION OR FOG.

IAZ001>003-012>014-020>022-031>034-043>046-290900-
   NORTHWEST IOWA

CITY           SKY/WX    TMP DP  RH WIND       PRES   REMARKS
CARROLL *      LGT RAIN  70  68  94 S14G22    29.85F
DENISON *      CLOUDY    70  68  94 SE13G20   29.81F
LE MARS *      MOCLDY    72  72 100 SE6       29.79F
ORANGE CITY *  CLOUDY    73  70  88 S7        29.80F FOG
SHELDON *      CLOUDY    72  72 100 SE8       29.80F FOG
SPENCER        CLOUDY    70  67  90 S8        29.83F
STORM LAKE *   CLEAR     66  66 100 SE8G14    29.84S
$$

IAZ055>058-069>071-079>083-090>094-290900-
   SOUTHWEST IOWA

CITY           SKY/WX    TMP DP  RH WIND       PRES   REMARKS
ATLANTIC *     CLOUDY    70  66  88 CALM      29.85S
AUDUBON *      CLOUDY    72  70  94 CALM      29.87F
CLARINDA *     MOCLDY    72  72 100 E6        29.86S
COUNCIL BLFS * CLOUDY    72  72 100 S8G17     29.84R
CRESTON *      PTCLDY    66  66 100 E8        29.88F
HARLAN  *      LGT RAIN  70  68  94 SE3       29.88F
RED OAK *      CLOUDY    72  70  94 CALM      29.84S
SHENANDOAH *   MOCLDY    73  72  94 CALM      29.83F
$$

IAZ047>049-059>061-072>074-084-290900-
   CENTRAL IOWA

CITY           SKY/WX    TMP DP  RH WIND       PRES   REMARKS
AMES           CLOUDY    68  67  96 N6        29.85F
ANKENY *       PTCLDY    68  68 100 E8        29.87F
CHARITON *     CLOUDY    70  68  94 E7        29.90F
DES MOINES     CLOUDY    69  66  90 SE10      29.87F
GRINNELL*      CLOUDY    68  66  94 E3        29.93F
KNOXVILLE *    MOCLDY    70  66  88 E8        29.89F
MARSHALLTOWN   LGT RAIN  68  67  96 SE5       29.90F
PELLA *        MOCLDY    70  68  94 E5        29.92F
PERRY *          N/A     68  66  94 CALM      29.86F
$$

IAZ004>006-015-016-023>025-035-036-290900-
   NORTH CENTRAL IOWA

CITY           SKY/WX    TMP DP  RH WIND       PRES   REMARKS
ALGONA *       MOCLDY    68  68 100 S20       29.84F
CLARION *      CLOUDY    68  68 100 S8        29.87S
ESTHERVILLE    CLOUDY    69  67  93 S16G24    29.83F
FORT DODGE *   CLOUDY    68  66  94 S6        29.86F
MASON CITY     CLOUDY    69  68  96 S9        29.88F
FOREST CITY *  RAIN      68  68 100 SE6       29.85F
IOWA FALLS *   LGT RAIN  68  66  94 SE9       29.90F
$$

IAZ007>011-017>019-026>030-037>042-050>054-066-290900-
   NORTHEAST IOWA

CITY           SKY/WX    TMP DP  RH WIND       PRES   REMARKS
CEDAR RAPIDS   CLEAR     68  68 100 S7        29.91F
CHARLES CITY * LGT RAIN  68  68 100 S12       29.90F
CLINTON *      PTCLDY    66  64  94 SE6       29.96F
DECORAH *      CLOUDY    68  68 100 S7G13     29.91S
DUBUQUE        CLOUDY    67  66  97 S12       29.94F FOG
MONTICELLO *   CLOUDY    68  68 100 VRB5      29.92F FOG
OELWEIN *      MOCLDY    68  68 100 S9        29.94F FOG
WATERLOO       LGT RAIN  69  67  93 S9        29.91F
$$

IAZ064-065-067-068-078-290900-
   EAST CENTRAL IOWA

CITY           SKY/WX    TMP DP  RH WIND       PRES   REMARKS
DAVENPORT      PTCLDY    69  67  93 S7        29.94F
IOWA CITY      CLEAR     67  67 100 SE6       29.93F
MT. PLEASANT * CLEAR     70  68  94 SE7       29.92F
MUSCATINE *    CLEAR     70  68  94 SE6       29.92F
QUAD CITIES    MOCLDY    71  67  87 SE3       29.93F
$$

IAZ062-063-075>077-085>089-095>099-290900-
   SOUTHEAST IOWA

CITY           SKY/WX    TMP DP  RH WIND       PRES   REMARKS
BURLINGTON     PTCLDY    71  69  93 S8        29.92F
FAIRFIELD *    PTCLDY    70  66  88 SE8       29.91F
FORT MADISON * PTCLDY    72  72 100 SE7       29.93F
KEOKUK *       CLEAR     72  70  94 SE8       29.92S
OSKALOOSA *    MOCLDY    70  68  94 NW9       29.93R
CENTERVILLE *  CLEAR     68  68 100 SE6       29.91F
OTTUMWA        PTCLDY    69  67  93 SE8       29.89F
WASHINGTON *   PTCLDY    70  70 100 S8        29.91F
$$

ABBREVIATIONS USED IN REMARKS
   TC - TEMPERATURES IN CELSIUS
  WCI - WIND CHILL INDEX
   HX - HEAT INDEX
  VSB - VISIBILITY
$$



USA.gov is the U.S. government's official web portal to all federal, state and local government web resources and services.